LIC2510 LEBB-LECO

Flight info

Callsign LIC2510
Flight time 0h 50m
Altitude 31000
Route CALCE M190 OBETO/N0418F330 M190 LASKU DCT ROXER
Aircraft HDJT/L-SABDGRWY/H

Departure

Time 2026-04-16 14:27
Airport Bilbao Airport (LEBB)

Arrival

Time 2026-04-16 15:17
Airport A Coruña Airport (LECO)
Time Latitude Longitude Altitude Speed Heading
2026-04-16 14:12 43.30164 -2.90488 119 ft 0 kts 329°
2026-04-16 14:23 43.30179 -2.90506 121 ft 0 kts 299°
2026-04-16 14:24 43.30171 -2.90549 122 ft 8 kts 225°
2026-04-16 14:24 43.30118 -2.90567 123 ft 6 kts 159°
2026-04-16 14:24 43.30097 -2.90519 123 ft 10 kts 114°
2026-04-16 14:24 43.30048 -2.90398 123 ft 19 kts 127°
2026-04-16 14:25 43.29986 -2.90240 121 ft 18 kts 112°
2026-04-16 14:25 43.29938 -2.90092 122 ft 16 kts 115°
2026-04-16 14:25 43.29877 -2.89924 123 ft 23 kts 117°
2026-04-16 14:25 43.29800 -2.89709 123 ft 26 kts 116°
2026-04-16 14:26 43.29723 -2.89612 123 ft 15 kts 183°
2026-04-16 14:26 43.29663 -2.89721 122 ft 20 kts 271°
2026-04-16 14:26 43.29787 -2.90149 121 ft 87 kts 294°
2026-04-16 14:26 43.30176 -2.91099 214 ft 131 kts 298°
2026-04-16 14:27 43.30686 -2.92300 336 ft 161 kts 298°
2026-04-16 14:27 43.31244 -2.93728 390 ft 186 kts 296°
2026-04-16 14:27 43.31884 -2.95353 892 ft 192 kts 299°
2026-04-16 14:27 43.32611 -2.96849 1689 ft 193 kts 313°
2026-04-16 14:28 43.33474 -2.98310 2227 ft 202 kts 295°
2026-04-16 14:28 43.33703 -3.00231 2474 ft 220 kts 270°
2026-04-16 14:28 43.33688 -3.02469 2608 ft 248 kts 275°
2026-04-16 14:28 43.33872 -3.04911 2659 ft 262 kts 279°
2026-04-16 14:29 43.34139 -3.07351 3003 ft 254 kts 279°
2026-04-16 14:29 43.34363 -3.09747 3734 ft 251 kts 276°
2026-04-16 14:29 43.34561 -3.12117 4510 ft 249 kts 275°
2026-04-16 14:29 43.34764 -3.14466 5287 ft 247 kts 274°
2026-04-16 14:30 43.34973 -3.16799 6054 ft 245 kts 274°
2026-04-16 14:30 43.35178 -3.19114 6825 ft 243 kts 274°
2026-04-16 14:30 43.35380 -3.21420 7575 ft 243 kts 274°
2026-04-16 14:30 43.35581 -3.23722 8339 ft 242 kts 275°
2026-04-16 14:31 43.35781 -3.26015 9121 ft 241 kts 275°
2026-04-16 14:31 43.35980 -3.28289 9922 ft 238 kts 275°
2026-04-16 14:31 43.36177 -3.30547 10677 ft 238 kts 275°
2026-04-16 14:31 43.36432 -3.32790 11417 ft 237 kts 280°
2026-04-16 14:32 43.36779 -3.34993 12182 ft 235 kts 280°
2026-04-16 14:32 43.37110 -3.37183 12968 ft 233 kts 279°
2026-04-16 14:32 43.37433 -3.39355 13773 ft 231 kts 279°
2026-04-16 14:32 43.37759 -3.41510 14512 ft 229 kts 280°
2026-04-16 14:33 43.38081 -3.43649 15257 ft 228 kts 279°
2026-04-16 14:33 43.38394 -3.45740 15995 ft 225 kts 279°
2026-04-16 14:33 43.38708 -3.47832 16762 ft 222 kts 279°
2026-04-16 14:33 43.39017 -3.49891 17550 ft 218 kts 279°
2026-04-16 14:34 43.39319 -3.51915 18365 ft 214 kts 279°
2026-04-16 14:34 43.39614 -3.53892 19093 ft 209 kts 279°
2026-04-16 14:34 43.39914 -3.55907 19500 ft 222 kts 279°
2026-04-16 14:34 43.40233 -3.58060 19818 ft 238 kts 279°
2026-04-16 14:35 43.40575 -3.60358 20136 ft 253 kts 279°
2026-04-16 14:35 43.40937 -3.62790 20454 ft 266 kts 279°
2026-04-16 14:35 43.41316 -3.65346 20778 ft 279 kts 279°
2026-04-16 14:35 43.41712 -3.68016 21107 ft 291 kts 279°
2026-04-16 14:36 43.42121 -3.70784 21436 ft 301 kts 279°
2026-04-16 14:36 43.42544 -3.73646 21770 ft 310 kts 279°
2026-04-16 14:36 43.42977 -3.76588 22108 ft 318 kts 279°
2026-04-16 14:36 43.43420 -3.79602 22449 ft 325 kts 279°
2026-04-16 14:37 43.43873 -3.82679 22803 ft 331 kts 279°
2026-04-16 14:37 43.44331 -3.85814 23147 ft 337 kts 279°
2026-04-16 14:37 43.44797 -3.89000 23495 ft 342 kts 279°
2026-04-16 14:37 43.45111 -3.92249 23847 ft 344 kts 272°
2026-04-16 14:38 43.45298 -3.95547 24144 ft 348 kts 273°
2026-04-16 14:38 43.45517 -3.98869 24445 ft 350 kts 273°
2026-04-16 14:38 43.45737 -4.02220 24749 ft 353 kts 273°
2026-04-16 14:38 43.45942 -4.05592 25056 ft 354 kts 273°
2026-04-16 14:39 43.46147 -4.08982 25367 ft 356 kts 273°
2026-04-16 14:39 43.46358 -4.12374 25679 ft 357 kts 273°
2026-04-16 14:39 43.46568 -4.15780 25996 ft 357 kts 273°
2026-04-16 14:39 43.46775 -4.19187 26317 ft 357 kts 273°
2026-04-16 14:40 43.46981 -4.22595 26640 ft 357 kts 274°
2026-04-16 14:40 43.47187 -4.25999 26967 ft 357 kts 274°
2026-04-16 14:40 43.47391 -4.29399 27303 ft 356 kts 274°
2026-04-16 14:40 43.47594 -4.32792 27638 ft 355 kts 274°
2026-04-16 14:41 43.47783 -4.36177 27975 ft 354 kts 273°
2026-04-16 14:41 43.47933 -4.39555 28317 ft 353 kts 272°
2026-04-16 14:41 43.48083 -4.42921 28663 ft 352 kts 273°
2026-04-16 14:41 43.48248 -4.46267 29013 ft 350 kts 274°
2026-04-16 14:42 43.48412 -4.49607 29369 ft 349 kts 273°
2026-04-16 14:42 43.48574 -4.52932 29729 ft 347 kts 274°
2026-04-16 14:42 43.48761 -4.56241 30093 ft 346 kts 274°
2026-04-16 14:42 43.48950 -4.59537 30444 ft 344 kts 274°
2026-04-16 14:43 43.49125 -4.62807 30761 ft 342 kts 274°
2026-04-16 14:43 43.49295 -4.66057 31076 ft 339 kts 274°
2026-04-16 14:43 43.49470 -4.69308 31217 ft 343 kts 274°
2026-04-16 14:43 43.49647 -4.72620 31218 ft 350 kts 274°
2026-04-16 14:44 43.50004 -4.79407 31216 ft 360 kts 274°
2026-04-16 14:44 43.50336 -4.86351 31218 ft 366 kts 270°
2026-04-16 14:45 43.49768 -4.93359 31228 ft 371 kts 262°
2026-04-16 14:45 43.49026 -5.00430 31228 ft 375 kts 262°
2026-04-16 14:46 43.48257 -5.07551 31229 ft 377 kts 262°
2026-04-16 14:46 43.47491 -5.14658 31221 ft 378 kts 262°
2026-04-16 14:47 43.46710 -5.21833 31225 ft 379 kts 262°
2026-04-16 14:47 43.45925 -5.29017 31226 ft 380 kts 262°
2026-04-16 14:48 43.45134 -5.36213 31227 ft 380 kts 262°
2026-04-16 14:48 43.44339 -5.43398 31227 ft 380 kts 262°
2026-04-16 14:49 43.43540 -5.50582 31229 ft 380 kts 262°
2026-04-16 14:49 43.42736 -5.57759 31224 ft 379 kts 262°
2026-04-16 14:50 43.41930 -5.64923 31220 ft 379 kts 262°
2026-04-16 14:50 43.41118 -5.72093 31227 ft 379 kts 261°
2026-04-16 14:51 43.40303 -5.79247 31219 ft 378 kts 261°
2026-04-16 14:51 43.39492 -5.86330 31220 ft 377 kts 261°
2026-04-16 14:53 43.36189 -6.14755 31217 ft 376 kts 260°
2026-04-16 14:54 43.35354 -6.21840 31217 ft 376 kts 260°
2026-04-16 14:54 43.34515 -6.28926 31209 ft 376 kts 260°
2026-04-16 14:55 43.33671 -6.36011 31208 ft 376 kts 260°
2026-04-16 14:55 43.32823 -6.43093 31196 ft 376 kts 260°
2026-04-16 14:56 43.31972 -6.50165 31198 ft 375 kts 259°
2026-04-16 14:56 43.31117 -6.57221 31201 ft 374 kts 259°
2026-04-16 14:57 43.30260 -6.64264 31198 ft 373 kts 260°
2026-04-16 14:57 43.29400 -6.71282 31202 ft 373 kts 259°
2026-04-16 14:58 43.28103 -6.81836 31201 ft 374 kts 259°
2026-04-16 14:59 43.27239 -6.88809 31209 ft 373 kts 259°
2026-04-16 14:59 43.26362 -6.95815 31194 ft 372 kts 259°
2026-04-16 15:00 43.25487 -7.02817 31200 ft 373 kts 259°
2026-04-16 15:00 43.24604 -7.09826 31194 ft 373 kts 259°
2026-04-16 15:01 43.23719 -7.16829 31196 ft 373 kts 259°
2026-04-16 15:01 43.23412 -7.23970 30582 ft 386 kts 272°
2026-04-16 15:01 43.23840 -7.27613 29806 ft 387 kts 278°
2026-04-16 15:02 43.24391 -7.31197 28985 ft 381 kts 278°
2026-04-16 15:02 43.24911 -7.34740 28188 ft 376 kts 277°
2026-04-16 15:02 43.25416 -7.38237 27408 ft 371 kts 277°
2026-04-16 15:02 43.25924 -7.41687 26652 ft 367 kts 278°
2026-04-16 15:03 43.26430 -7.45098 25913 ft 363 kts 277°
2026-04-16 15:03 43.26924 -7.48473 25198 ft 359 kts 277°
2026-04-16 15:03 43.27410 -7.51812 24524 ft 355 kts 277°
2026-04-16 15:03 43.27892 -7.55121 23931 ft 352 kts 277°
2026-04-16 15:04 43.28371 -7.58404 23266 ft 349 kts 277°
2026-04-16 15:04 43.28844 -7.61661 22586 ft 346 kts 277°
2026-04-16 15:04 43.29311 -7.64883 21929 ft 343 kts 277°
2026-04-16 15:04 43.29773 -7.68088 21295 ft 341 kts 277°
2026-04-16 15:05 43.30231 -7.71262 20684 ft 338 kts 277°
2026-04-16 15:05 43.30686 -7.74419 20080 ft 336 kts 277°
2026-04-16 15:05 43.31136 -7.77550 19500 ft 333 kts 277°
2026-04-16 15:05 43.31581 -7.80660 18943 ft 328 kts 277°
2026-04-16 15:06 43.31988 -7.83671 18384 ft 314 kts 276°
2026-04-16 15:06 43.32292 -7.86578 17772 ft 317 kts 270°
2026-04-16 15:06 43.32295 -7.89640 17171 ft 315 kts 265°
2026-04-16 15:06 43.32213 -7.92599 16610 ft 315 kts 266°
2026-04-16 15:07 43.32239 -7.95607 16054 ft 315 kts 270°
2026-04-16 15:07 43.32347 -7.98599 15497 ft 312 kts 270°
2026-04-16 15:07 43.32418 -8.01564 14962 ft 309 kts 269°
2026-04-16 15:07 43.32453 -8.04503 14455 ft 307 kts 269°
2026-04-16 15:08 43.32496 -8.07422 13946 ft 305 kts 269°
2026-04-16 15:08 43.32552 -8.10322 13385 ft 303 kts 270°
2026-04-16 15:08 43.32607 -8.13198 12838 ft 301 kts 270°
2026-04-16 15:08 43.32654 -8.16064 12301 ft 299 kts 270°
2026-04-16 15:09 43.32701 -8.18907 11774 ft 297 kts 270°
2026-04-16 15:09 43.32748 -8.21599 11262 ft 270 kts 270°
2026-04-16 15:09 43.32790 -8.24200 10739 ft 272 kts 270°
2026-04-16 15:09 43.32829 -8.26782 10247 ft 269 kts 270°
2026-04-16 15:10 43.32871 -8.29339 9722 ft 268 kts 270°
2026-04-16 15:10 43.32912 -8.31899 9209 ft 268 kts 269°
2026-04-16 15:10 43.32950 -8.34445 8694 ft 266 kts 269°
2026-04-16 15:10 43.32988 -8.36970 8218 ft 264 kts 269°
2026-04-16 15:11 43.33014 -8.38644 7890 ft 264 kts 269°
2026-04-16 15:11 43.33052 -8.41158 7437 ft 262 kts 269°
2026-04-16 15:11 43.33088 -8.43613 6973 ft 253 kts 269°
2026-04-16 15:11 43.33122 -8.46003 6524 ft 247 kts 269°
2026-04-16 15:12 43.33156 -8.48318 6186 ft 238 kts 269°
2026-04-16 15:12 43.33188 -8.50544 5880 ft 229 kts 269°
2026-04-16 15:12 43.33217 -8.52698 5579 ft 222 kts 269°
2026-04-16 15:12 43.33103 -8.54750 5293 ft 207 kts 249°
2026-04-16 15:13 43.32290 -8.56274 5045 ft 197 kts 213°
2026-04-16 15:13 43.31017 -8.56743 4821 ft 188 kts 176°
2026-04-16 15:13 43.29894 -8.56009 4636 ft 180 kts 136°
2026-04-16 15:13 43.29396 -8.54456 4289 ft 184 kts 99°
2026-04-16 15:14 43.29278 -8.52689 3802 ft 176 kts 104°
2026-04-16 15:14 43.28925 -8.51136 3427 ft 170 kts 114°
2026-04-16 15:14 43.28485 -8.49639 3065 ft 170 kts 114°
2026-04-16 15:14 43.28057 -8.48127 2753 ft 170 kts 111°
2026-04-16 15:15 43.27637 -8.46618 2420 ft 169 kts 112°
2026-04-16 15:15 43.27214 -8.45111 2090 ft 169 kts 111°
2026-04-16 15:15 43.26793 -8.43594 1754 ft 166 kts 110°
2026-04-16 15:15 43.26398 -8.42175 1355 ft 157 kts 110°
2026-04-16 15:16 43.26051 -8.40780 1052 ft 145 kts 96°
2026-04-16 15:16 43.26159 -8.39519 828 ft 125 kts 61°
2026-04-16 15:16 43.26765 -8.38734 608 ft 124 kts 29°
2026-04-16 15:16 43.27614 -8.38352 660 ft 139 kts 358°
2026-04-16 15:17 43.28558 -8.38522 617 ft 130 kts 353°
2026-04-16 15:17 43.29382 -8.38404 450 ft 109 kts 24°
2026-04-16 15:17 43.29992 -8.37917 338 ft 91 kts 27°
2026-04-16 15:17 43.30361 -8.37616 335 ft 17 kts 26°
2026-04-16 15:18 43.30368 -8.37596 335 ft 3 kts 218°
2026-04-16 15:18 43.30327 -8.37639 334 ft 16 kts 217°
2026-04-16 15:18 43.30331 -8.37769 333 ft 19 kts 303°
2026-04-16 15:18 43.30346 -8.37849 335 ft 7 kts 244°
2026-04-16 15:19 43.30300 -8.37931 335 ft 7 kts 260°
2026-04-16 15:19 43.30301 -8.37943 335 ft 0 kts 284°